Elm City, NC

7:37 PM EST on February 24, 2017 (GMT -0500)
Rocky Mount-Wilson Regional

Weather History for KRWI - December, 2011

Change the Weather History Date:

Wednesday, December 14, 2011

  Actual Average Record
Temperature  
Mean Temperature 44 °F -  
Max Temperature 55 °F 57 °F 75 °F (2001)
Min Temperature 33 °F 33 °F 14 °F (1960)
Degree Days  
Heating Degree Days 21    
Moisture  
Dew Point 34 °F    
Average Humidity 73    
Maximum Humidity 96    
Minimum Humidity 39    
Precipitation  
Precipitation 0.00 in - - ()
Sea Level Pressure  
Sea Level Pressure 30.39 in    
Wind  
Wind Speed 0 mph (NE)    
Max Wind Speed 5 mph    
Max Gust Speed -    
Visibility 8 miles    
Events      
Averages and records for this station are not official NWS values.
T = Trace of Precipitation, MM = Missing Value Source: NWS Daily Summary

Daily Weather History Graph

Daily Weather History Graph

Search for Another Location

Airport or City:

Trip Planner

Search our weather history database for the weather conditions in past years. The results will help you decide how hot, cold, wet, or windy it might be!

Date:

Astronomy

Dec. 14, 2011 Rise Set
Actual Time 7:13 AM EST 4:58 PM EST
Civil Twilight 6:45 AM EST 5:27 PM EST
Nautical Twilight 6:13 AM EST 5:59 PM EST
Astronomical Twilight 5:41 AM EST 6:30 PM EST
Moon 9:10 PM EST (12/14) 10:02 AM EST (12/14)
Length of Visible Light 10h 42m
Length of Day
9h 45m
Waning Gibbous, 83% of the Moon is Illuminated
Dec 14
Waning Gibbous
Dec 17
Last Quarter
Dec 24
New
Jan 1
First Quarter
Jan 9
Full

Hourly Weather History & Observations

Time (EST) Temp. Dew Point Humidity Pressure Visibility Wind Dir Wind Speed Gust Speed Precip Events Conditions
12:53 AM 35.1 °F 34.0 °F 96% 30.41 in 6.0 mi Calm Calm - N/A   Clear
1:53 AM 35.1 °F 32.0 °F 89% 30.41 in 4.0 mi Calm Calm - N/A   Clear
1:58 AM 33.8 °F 32.0 °F 93% 30.40 in 1.5 mi Calm Calm - N/A   Clear
2:16 AM 33.8 °F 32.0 °F 93% 30.40 in 2.0 mi Calm Calm - N/A   Clear
2:26 AM 33.8 °F 32.0 °F 93% 30.40 in 6.0 mi Calm Calm - N/A   Clear
2:53 AM 34.0 °F 32.0 °F 92% 30.41 in 1.5 mi Calm Calm - N/A   Clear
3:04 AM 33.8 °F 32.0 °F 93% 30.41 in 3.0 mi Calm Calm - N/A   Clear
3:53 AM 35.6 °F 33.8 °F 93% 30.40 in 10.0 mi Calm Calm - N/A   Overcast
4:53 AM 37.0 °F 35.1 °F 93% 30.40 in 10.0 mi Calm Calm - N/A   Overcast
5:53 AM 39.9 °F 36.0 °F 86% 30.41 in 10.0 mi Calm Calm - N/A   Overcast
6:53 AM 41.0 °F 36.0 °F 82% 30.42 in 10.0 mi Calm Calm - N/A   Overcast
7:53 AM 43.0 °F 36.0 °F 76% 30.42 in 10.0 mi Calm Calm - N/A   Overcast
8:53 AM 44.1 °F 33.1 °F 65% 30.43 in 10.0 mi Calm Calm - N/A   Overcast
9:53 AM 46.9 °F 32.0 °F 56% 30.43 in 10.0 mi East 3.5 mph - N/A   Overcast
10:53 AM 50.0 °F 30.9 °F 48% 30.42 in 10.0 mi Calm Calm - N/A   Overcast
11:53 AM 52.0 °F 30.9 °F 45% 30.41 in 10.0 mi Calm Calm - N/A   Overcast
12:53 PM 55.0 °F 30.9 °F 40% 30.38 in 10.0 mi North 4.6 mph - N/A   Overcast
1:53 PM 55.9 °F 30.9 °F 39% 30.36 in 10.0 mi Calm Calm - N/A   Overcast
2:53 PM 55.9 °F 30.9 °F 39% 30.35 in 10.0 mi NE 4.6 mph - N/A   Overcast
3:53 PM 55.0 °F 32.0 °F 42% 30.36 in 10.0 mi Calm Calm - N/A   Partly Cloudy
4:53 PM 51.1 °F 37.0 °F 59% 30.36 in 10.0 mi Calm Calm - N/A   Overcast
5:53 PM 48.0 °F 36.0 °F 63% 30.36 in 10.0 mi Calm Calm - N/A   Mostly Cloudy
6:53 PM 46.0 °F 37.0 °F 71% 30.37 in 10.0 mi Calm Calm - N/A   Scattered Clouds
7:53 PM 44.1 °F 37.0 °F 76% 30.37 in 10.0 mi Calm Calm - N/A   Clear
8:53 PM 42.1 °F 37.0 °F 82% 30.36 in 10.0 mi Calm Calm - N/A   Clear
9:53 PM 41.0 °F 36.0 °F 82% 30.36 in 10.0 mi Calm Calm - N/A   Clear
10:53 PM 41.0 °F 36.0 °F 82% 30.36 in 10.0 mi Calm Calm - N/A   Clear
11:53 PM 39.0 °F 35.1 °F 86% 30.34 in 10.0 mi Calm Calm - N/A   Clear